Year,Month,Day,Hour,Minute,Value (Times are PST for temperature in C)
2020,12,06,00,00,8.40
2020,12,06,00,01,8.40
2020,12,06,00,02,8.40
2020,12,06,00,03,8.40
2020,12,06,00,04,8.40
2020,12,06,00,05,8.40
2020,12,06,00,06,8.40
2020,12,06,00,07,8.40
2020,12,06,00,08,8.40
2020,12,06,00,09,8.40
2020,12,06,00,10,8.40
2020,12,06,00,11,8.30
2020,12,06,00,12,8.30
2020,12,06,00,13,8.30
2020,12,06,00,14,8.30
2020,12,06,00,15,8.20
2020,12,06,00,16,8.20
2020,12,06,00,17,8.10
2020,12,06,00,18,8.10
2020,12,06,00,19,8.00
2020,12,06,00,20,8.00
2020,12,06,00,21,8.00
2020,12,06,00,22,8.00
2020,12,06,00,23,8.00
2020,12,06,00,24,8.00
2020,12,06,00,25,8.00
2020,12,06,00,26,8.00
2020,12,06,00,27,8.00
2020,12,06,00,28,8.00
2020,12,06,00,29,8.00
2020,12,06,00,30,8.00
2020,12,06,00,31,8.00
2020,12,06,00,32,8.00
2020,12,06,00,33,8.00
2020,12,06,00,34,7.90
2020,12,06,00,35,7.90
2020,12,06,00,36,7.90
2020,12,06,00,37,7.90
2020,12,06,00,38,7.90
2020,12,06,00,39,7.80
2020,12,06,00,40,7.80
2020,12,06,00,41,7.80
2020,12,06,00,42,7.80
2020,12,06,00,43,7.80
2020,12,06,00,44,7.80
2020,12,06,00,45,7.80
2020,12,06,00,46,7.80
2020,12,06,00,47,7.70
2020,12,06,00,48,7.70
2020,12,06,00,49,7.70
2020,12,06,00,50,7.70
2020,12,06,00,51,7.80
2020,12,06,00,52,7.80
2020,12,06,00,53,7.80
2020,12,06,00,54,7.80
2020,12,06,00,55,7.80
2020,12,06,00,56,7.80
2020,12,06,00,57,7.80
2020,12,06,00,58,7.80
2020,12,06,00,59,7.70
2020,12,06,01,00,7.70
2020,12,06,01,01,7.70
2020,12,06,01,02,7.70
2020,12,06,01,03,7.80
2020,12,06,01,04,7.70
2020,12,06,01,05,7.70
2020,12,06,01,06,7.70
2020,12,06,01,07,7.80
2020,12,06,01,08,7.80
2020,12,06,01,09,7.80
2020,12,06,01,10,7.80
2020,12,06,01,11,7.80
2020,12,06,01,12,7.80
2020,12,06,01,13,7.80
2020,12,06,01,14,7.80
2020,12,06,01,15,7.80
2020,12,06,01,16,7.80
2020,12,06,01,17,7.80
2020,12,06,01,18,7.80
2020,12,06,01,19,7.80
2020,12,06,01,20,7.80
2020,12,06,01,21,7.80
2020,12,06,01,22,7.80
2020,12,06,01,23,7.90
2020,12,06,01,24,7.90
2020,12,06,01,25,7.80
2020,12,06,01,26,7.90
2020,12,06,01,27,7.80
2020,12,06,01,28,7.90
2020,12,06,01,29,7.80
2020,12,06,01,30,7.80
2020,12,06,01,31,7.80
2020,12,06,01,32,7.80
2020,12,06,01,33,7.80
2020,12,06,01,34,7.80
2020,12,06,01,35,7.70
2020,12,06,01,36,7.70
2020,12,06,01,37,7.70
2020,12,06,01,38,7.70
2020,12,06,01,39,7.60
2020,12,06,01,40,7.60
2020,12,06,01,41,7.60
2020,12,06,01,42,7.60
2020,12,06,01,43,7.60
2020,12,06,01,44,7.50
2020,12,06,01,45,7.50
2020,12,06,01,46,7.50
2020,12,06,01,47,7.50
2020,12,06,01,48,7.50
2020,12,06,01,49,7.50
2020,12,06,01,50,7.50
2020,12,06,01,51,7.50
2020,12,06,01,52,7.50
2020,12,06,01,53,7.50
2020,12,06,01,54,7.50
2020,12,06,01,55,7.50
2020,12,06,01,56,7.50
2020,12,06,01,57,7.40
2020,12,06,01,58,7.50
2020,12,06,01,59,7.50
2020,12,06,02,00,7.40
2020,12,06,02,01,7.40
2020,12,06,02,02,7.40
2020,12,06,02,03,7.40
2020,12,06,02,04,7.40
2020,12,06,02,05,7.40
2020,12,06,02,06,7.40
2020,12,06,02,07,7.40
2020,12,06,02,08,7.40
2020,12,06,02,09,7.40
2020,12,06,02,10,7.40
2020,12,06,02,11,7.40
2020,12,06,02,12,7.40
2020,12,06,02,13,7.40
2020,12,06,02,14,7.30
2020,12,06,02,15,7.30
2020,12,06,02,16,7.30
2020,12,06,02,17,7.30
2020,12,06,02,18,7.20
2020,12,06,02,19,7.20
2020,12,06,02,20,7.20
2020,12,06,02,21,7.20
2020,12,06,02,22,7.20
2020,12,06,02,23,7.20
2020,12,06,02,24,7.20
2020,12,06,02,25,7.20
2020,12,06,02,26,7.20
2020,12,06,02,27,7.20
2020,12,06,02,28,7.20
2020,12,06,02,29,7.20
2020,12,06,02,30,7.20
2020,12,06,02,31,7.20
2020,12,06,02,32,7.20
2020,12,06,02,33,7.20
2020,12,06,02,34,7.20
2020,12,06,02,35,7.20
2020,12,06,02,36,7.20
2020,12,06,02,37,7.20
2020,12,06,02,38,7.30
2020,12,06,02,39,7.30
2020,12,06,02,40,7.30
2020,12,06,02,41,7.30
2020,12,06,02,42,7.30
2020,12,06,02,43,7.30
2020,12,06,02,44,7.30
2020,12,06,02,45,7.30
2020,12,06,02,46,7.30
2020,12,06,02,47,7.30
2020,12,06,02,48,7.20
2020,12,06,02,49,7.20
2020,12,06,02,50,7.20
2020,12,06,02,51,7.20
2020,12,06,02,52,7.20
2020,12,06,02,53,7.20
2020,12,06,02,54,7.20
2020,12,06,02,55,7.10
2020,12,06,02,56,7.10
2020,12,06,02,57,7.10
2020,12,06,02,58,7.10
2020,12,06,02,59,7.10
2020,12,06,03,00,7.10
2020,12,06,03,01,7.20
2020,12,06,03,02,7.20
2020,12,06,03,03,7.20
2020,12,06,03,04,7.20
2020,12,06,03,05,7.20
2020,12,06,03,06,7.20
2020,12,06,03,07,7.20
2020,12,06,03,08,7.20
2020,12,06,03,09,7.20
2020,12,06,03,10,7.30
2020,12,06,03,11,7.30
2020,12,06,03,12,7.30
2020,12,06,03,13,7.30
2020,12,06,03,14,7.30
2020,12,06,03,15,7.30
2020,12,06,03,16,7.30
2020,12,06,03,17,7.30
2020,12,06,03,18,7.30
2020,12,06,03,19,7.30
2020,12,06,03,20,7.30
2020,12,06,03,21,7.40
2020,12,06,03,22,7.40
2020,12,06,03,23,7.40
2020,12,06,03,24,7.40
2020,12,06,03,25,7.40
2020,12,06,03,26,7.40
2020,12,06,03,27,7.40
2020,12,06,03,28,7.50
2020,12,06,03,29,7.50
2020,12,06,03,30,7.50
2020,12,06,03,31,7.50
2020,12,06,03,32,7.50
2020,12,06,03,33,7.60
2020,12,06,03,34,7.60
2020,12,06,03,35,7.60
2020,12,06,03,36,7.60
2020,12,06,03,37,7.60
2020,12,06,03,38,7.60
2020,12,06,03,39,7.60
2020,12,06,03,40,7.60
2020,12,06,03,41,7.60
2020,12,06,03,42,7.70
2020,12,06,03,43,7.60
2020,12,06,03,44,7.70
2020,12,06,03,45,7.70
2020,12,06,03,46,7.70
2020,12,06,03,47,7.70
2020,12,06,03,48,7.70
2020,12,06,03,49,7.70
2020,12,06,03,50,7.70
2020,12,06,03,51,7.70
2020,12,06,03,52,7.70
2020,12,06,03,53,7.70
2020,12,06,03,54,7.70
2020,12,06,03,55,7.70
2020,12,06,03,56,7.80
2020,12,06,03,57,7.80
2020,12,06,03,58,7.80
2020,12,06,03,59,7.80
2020,12,06,04,00,7.80
2020,12,06,04,01,7.80
2020,12,06,04,02,7.80
2020,12,06,04,03,7.90
2020,12,06,04,04,7.90
2020,12,06,04,05,7.90
2020,12,06,04,06,7.90
2020,12,06,04,07,7.90
2020,12,06,04,08,7.90
2020,12,06,04,09,7.90
2020,12,06,04,10,7.90
2020,12,06,04,11,7.90
2020,12,06,04,12,7.90
2020,12,06,04,13,7.90
2020,12,06,04,14,7.90
2020,12,06,04,15,7.90
2020,12,06,04,16,7.90
2020,12,06,04,17,7.90
2020,12,06,04,18,7.90
2020,12,06,04,19,7.90
2020,12,06,04,20,7.90
2020,12,06,04,21,7.90
2020,12,06,04,22,7.90
2020,12,06,04,23,7.90
2020,12,06,04,24,7.90
2020,12,06,04,25,8.00
2020,12,06,04,26,8.00
2020,12,06,04,27,8.00
2020,12,06,04,28,8.00
2020,12,06,04,29,8.10
2020,12,06,04,30,8.10
2020,12,06,04,31,8.10
2020,12,06,04,32,8.10
2020,12,06,04,33,8.10
2020,12,06,04,34,8.10
2020,12,06,04,35,8.20
2020,12,06,04,36,8.20
2020,12,06,04,37,8.20
2020,12,06,04,38,8.20
2020,12,06,04,39,8.20
2020,12,06,04,40,8.20
2020,12,06,04,41,8.20
2020,12,06,04,42,8.20
2020,12,06,04,43,8.20
2020,12,06,04,44,8.20
2020,12,06,04,45,8.20
2020,12,06,04,46,8.30
2020,12,06,04,47,8.30
2020,12,06,04,48,8.30
2020,12,06,04,49,8.30
2020,12,06,04,50,8.30
2020,12,06,04,51,8.30
2020,12,06,04,52,8.30
2020,12,06,04,53,8.30
2020,12,06,04,54,8.30
2020,12,06,04,55,8.30
2020,12,06,04,56,8.30
2020,12,06,04,57,8.30
2020,12,06,04,58,8.30
2020,12,06,04,59,8.30
2020,12,06,05,00,8.30
2020,12,06,05,01,8.30
2020,12,06,05,02,8.30
2020,12,06,05,03,8.30
2020,12,06,05,04,8.30
2020,12,06,05,05,8.30
2020,12,06,05,06,8.20
2020,12,06,05,07,8.20
2020,12,06,05,08,8.30
2020,12,06,05,09,8.20
2020,12,06,05,10,8.20
2020,12,06,05,11,8.20
2020,12,06,05,12,8.20
2020,12,06,05,13,8.20
2020,12,06,05,14,8.20
2020,12,06,05,15,8.20
2020,12,06,05,16,8.10
2020,12,06,05,17,8.10
2020,12,06,05,18,8.10
2020,12,06,05,19,8.10
2020,12,06,05,20,8.10
2020,12,06,05,21,8.00
2020,12,06,05,22,8.00
2020,12,06,05,23,8.00
2020,12,06,05,24,7.90
2020,12,06,05,25,7.90
2020,12,06,05,26,7.80
2020,12,06,05,27,7.80
2020,12,06,05,28,7.80
2020,12,06,05,29,7.80
2020,12,06,05,30,7.80
2020,12,06,05,31,7.80
2020,12,06,05,32,7.80
2020,12,06,05,33,7.80
2020,12,06,05,34,7.80
2020,12,06,05,35,7.80
2020,12,06,05,36,7.70
2020,12,06,05,37,7.70
2020,12,06,05,38,7.70
2020,12,06,05,39,7.70
2020,12,06,05,40,7.60
2020,12,06,05,41,7.60
2020,12,06,05,42,7.60
2020,12,06,05,43,7.60
2020,12,06,05,44,7.60
2020,12,06,05,45,7.60
2020,12,06,05,46,7.60
2020,12,06,05,47,7.60
2020,12,06,05,48,7.60
2020,12,06,05,49,7.60
2020,12,06,05,50,7.60
2020,12,06,05,51,7.60
2020,12,06,05,52,7.60
2020,12,06,05,53,7.60
2020,12,06,05,54,7.60
2020,12,06,05,55,7.60
2020,12,06,05,56,7.60
2020,12,06,05,57,7.60
2020,12,06,05,58,7.60
2020,12,06,05,59,7.60
2020,12,06,06,00,7.60
2020,12,06,06,01,7.60
2020,12,06,06,02,7.60
2020,12,06,06,03,7.60
2020,12,06,06,04,7.60
2020,12,06,06,05,7.60
2020,12,06,06,06,7.60
2020,12,06,06,07,7.60
2020,12,06,06,08,7.60
2020,12,06,06,09,7.70
2020,12,06,06,10,7.70
2020,12,06,06,11,7.70
2020,12,06,06,12,7.70
2020,12,06,06,13,7.70
2020,12,06,06,14,7.70
2020,12,06,06,15,7.70
2020,12,06,06,16,7.80
2020,12,06,06,17,7.80
2020,12,06,06,18,7.80
2020,12,06,06,19,7.80
2020,12,06,06,20,7.90
2020,12,06,06,21,7.90
2020,12,06,06,22,7.90
2020,12,06,06,23,7.90
2020,12,06,06,24,8.00
2020,12,06,06,25,8.00
2020,12,06,06,26,8.00
2020,12,06,06,27,8.10
2020,12,06,06,28,8.10
2020,12,06,06,29,8.10
2020,12,06,06,30,8.10
2020,12,06,06,31,8.10
2020,12,06,06,32,8.10
2020,12,06,06,33,8.00
2020,12,06,06,34,8.00
2020,12,06,06,35,8.00
2020,12,06,06,36,8.00
2020,12,06,06,37,8.00
2020,12,06,06,38,8.00
2020,12,06,06,39,8.10
2020,12,06,06,40,8.10
2020,12,06,06,41,8.10
2020,12,06,06,42,8.10
2020,12,06,06,43,8.10
2020,12,06,06,44,8.10
2020,12,06,06,45,8.10
2020,12,06,06,46,8.10
2020,12,06,06,47,8.10
2020,12,06,06,48,8.00
2020,12,06,06,49,8.00
2020,12,06,06,50,7.90
2020,12,06,06,51,7.90
2020,12,06,06,52,7.90
2020,12,06,06,53,7.90
2020,12,06,06,54,7.90
2020,12,06,06,55,7.80
2020,12,06,06,56,7.80
2020,12,06,06,57,7.80
2020,12,06,06,58,7.80
2020,12,06,06,59,7.70
2020,12,06,07,00,7.70
2020,12,06,07,01,7.70
2020,12,06,07,02,7.60
2020,12,06,07,03,7.50
2020,12,06,07,04,7.50
2020,12,06,07,05,7.60
2020,12,06,07,06,7.60
2020,12,06,07,07,7.80
2020,12,06,07,08,7.90
2020,12,06,07,09,8.00
2020,12,06,07,10,8.20
2020,12,06,07,11,8.20
2020,12,06,07,12,8.30
2020,12,06,07,13,8.30
2020,12,06,07,14,8.40
2020,12,06,07,15,8.40
2020,12,06,07,16,8.40
2020,12,06,07,17,8.40
2020,12,06,07,18,8.40
2020,12,06,07,19,8.40
2020,12,06,07,20,8.50
2020,12,06,07,21,8.50
2020,12,06,07,22,8.50
2020,12,06,07,23,8.60
2020,12,06,07,24,8.60
2020,12,06,07,25,8.60
2020,12,06,07,26,8.60
2020,12,06,07,27,8.60
2020,12,06,07,28,8.60
2020,12,06,07,29,8.60
2020,12,06,07,30,8.60
2020,12,06,07,31,8.60
2020,12,06,07,32,8.60
2020,12,06,07,33,8.60
2020,12,06,07,34,8.60
2020,12,06,07,35,8.60
2020,12,06,07,36,8.60
2020,12,06,07,37,8.60
2020,12,06,07,38,8.60
2020,12,06,07,39,8.60
2020,12,06,07,40,8.60
2020,12,06,07,41,8.60
2020,12,06,07,42,8.60
2020,12,06,07,43,8.60
2020,12,06,07,44,8.60
2020,12,06,07,45,8.60
2020,12,06,07,46,8.60
2020,12,06,07,47,8.60
2020,12,06,07,48,8.60
2020,12,06,07,49,8.60
2020,12,06,07,50,8.60
2020,12,06,07,51,8.60
2020,12,06,07,52,8.50
2020,12,06,07,53,8.50
2020,12,06,07,54,8.50
2020,12,06,07,55,8.40
2020,12,06,07,56,8.40
2020,12,06,07,57,8.30
2020,12,06,07,58,8.30
2020,12,06,07,59,8.20
2020,12,06,08,00,8.20
2020,12,06,08,01,8.20
2020,12,06,08,02,8.20
2020,12,06,08,03,8.10
2020,12,06,08,04,8.10
2020,12,06,08,05,8.00
2020,12,06,08,06,8.00
2020,12,06,08,07,7.90
2020,12,06,08,08,7.90
2020,12,06,08,09,7.80
2020,12,06,08,10,7.80
2020,12,06,08,11,7.70
2020,12,06,08,12,7.70
2020,12,06,08,13,7.60
2020,12,06,08,14,7.60
2020,12,06,08,15,7.50
2020,12,06,08,16,7.50
2020,12,06,08,17,7.50
2020,12,06,08,18,7.50
2020,12,06,08,19,7.50
2020,12,06,08,20,7.40
2020,12,06,08,21,7.40
2020,12,06,08,22,7.40
2020,12,06,08,23,7.40
2020,12,06,08,24,7.40
2020,12,06,08,25,7.40
2020,12,06,08,26,7.40
2020,12,06,08,27,7.40
2020,12,06,08,28,7.40
2020,12,06,08,29,7.40
2020,12,06,08,30,7.40
2020,12,06,08,31,7.40
2020,12,06,08,32,7.50
2020,12,06,08,33,7.50
2020,12,06,08,34,7.50
2020,12,06,08,35,7.40
2020,12,06,08,36,7.40
2020,12,06,08,37,7.40
2020,12,06,08,38,7.40
2020,12,06,08,39,7.40
2020,12,06,08,40,7.30
2020,12,06,08,41,7.30
2020,12,06,08,42,7.30
2020,12,06,08,43,7.20
2020,12,06,08,44,7.20
2020,12,06,08,45,7.30
2020,12,06,08,46,7.40
2020,12,06,08,47,7.40
2020,12,06,08,48,7.50
2020,12,06,08,49,7.60
2020,12,06,08,50,7.70
2020,12,06,08,51,7.70
2020,12,06,08,52,7.70
2020,12,06,08,53,7.80
2020,12,06,08,54,7.80
2020,12,06,08,55,7.80
2020,12,06,08,56,7.80
2020,12,06,08,57,7.90
2020,12,06,08,58,7.90
2020,12,06,08,59,7.90
2020,12,06,09,00,8.00
2020,12,06,09,01,8.00
2020,12,06,09,02,8.10
2020,12,06,09,03,8.10
2020,12,06,09,04,8.10
2020,12,06,09,05,8.20
2020,12,06,09,06,8.20
2020,12,06,09,07,8.20
2020,12,06,09,08,8.20
2020,12,06,09,09,8.30
2020,12,06,09,10,8.30
2020,12,06,09,11,8.30
2020,12,06,09,12,8.30
2020,12,06,09,13,8.40
2020,12,06,09,14,8.40
2020,12,06,09,15,8.40
2020,12,06,09,16,8.40
2020,12,06,09,17,8.40
2020,12,06,09,18,8.50
2020,12,06,09,19,8.50
2020,12,06,09,20,8.50
2020,12,06,09,21,8.50
2020,12,06,09,22,8.60
2020,12,06,09,23,8.60
2020,12,06,09,24,8.60
2020,12,06,09,25,8.70
2020,12,06,09,26,8.70
2020,12,06,09,27,8.70
2020,12,06,09,28,8.70
2020,12,06,09,29,8.70
2020,12,06,09,30,8.80
2020,12,06,09,31,8.80
2020,12,06,09,32,8.80
2020,12,06,09,33,8.80
2020,12,06,09,34,8.80
2020,12,06,09,35,8.90
2020,12,06,09,36,8.90
2020,12,06,09,37,9.00
2020,12,06,09,38,9.00
2020,12,06,09,39,9.00
2020,12,06,09,40,9.10
2020,12,06,09,41,9.10
2020,12,06,09,42,9.10
2020,12,06,09,43,9.10
2020,12,06,09,44,9.10
2020,12,06,09,45,9.20
2020,12,06,09,46,9.20
2020,12,06,09,47,9.20
2020,12,06,09,48,9.30
2020,12,06,09,49,9.30
2020,12,06,09,50,9.30
2020,12,06,09,51,9.30
2020,12,06,09,52,9.30
2020,12,06,09,53,9.30
2020,12,06,09,54,9.30
2020,12,06,09,55,9.30
2020,12,06,09,56,9.30
2020,12,06,09,57,9.30
2020,12,06,09,58,9.30
2020,12,06,09,59,9.40
2020,12,06,10,00,9.40
2020,12,06,10,01,9.40
2020,12,06,10,02,9.40
2020,12,06,10,03,9.40
2020,12,06,10,04,9.40
2020,12,06,10,05,9.40
2020,12,06,10,06,9.30
2020,12,06,10,07,9.40
2020,12,06,10,08,9.40
2020,12,06,10,09,9.40
2020,12,06,10,10,9.40
2020,12,06,10,11,9.40
2020,12,06,10,12,9.40
2020,12,06,10,13,9.30
2020,12,06,10,14,9.40
2020,12,06,10,15,9.40
2020,12,06,10,16,9.40
2020,12,06,10,17,9.40
2020,12,06,10,18,9.40
2020,12,06,10,19,9.40
2020,12,06,10,20,9.40
2020,12,06,10,21,9.40
2020,12,06,10,22,9.40
2020,12,06,10,23,9.40
2020,12,06,10,24,9.40
2020,12,06,10,25,9.40
2020,12,06,10,26,9.40
2020,12,06,10,27,9.40
2020,12,06,10,28,9.40
2020,12,06,10,29,9.40
2020,12,06,10,30,9.40
2020,12,06,10,31,9.40
2020,12,06,10,32,9.40
2020,12,06,10,33,9.40
2020,12,06,10,34,9.40
2020,12,06,10,35,9.40
2020,12,06,10,36,9.40
2020,12,06,10,37,9.40
2020,12,06,10,38,9.40
2020,12,06,10,39,9.50
2020,12,06,10,40,9.50
2020,12,06,10,41,9.50
2020,12,06,10,42,9.50
2020,12,06,10,43,9.50
2020,12,06,10,44,9.50
2020,12,06,10,45,9.50
2020,12,06,10,46,9.50
2020,12,06,10,47,9.60
2020,12,06,10,48,9.60
2020,12,06,10,49,9.60
2020,12,06,10,50,9.60
2020,12,06,10,51,9.60
2020,12,06,10,52,9.60
2020,12,06,10,53,9.60
2020,12,06,10,54,9.60
2020,12,06,10,55,9.60
2020,12,06,10,56,9.60
2020,12,06,10,57,9.60
2020,12,06,10,58,9.60
2020,12,06,10,59,9.60
2020,12,06,11,00,9.60
2020,12,06,11,01,9.70
2020,12,06,11,02,9.60
2020,12,06,11,03,9.60
2020,12,06,11,04,9.60
2020,12,06,11,05,9.60
2020,12,06,11,06,9.60
2020,12,06,11,07,9.60
2020,12,06,11,08,9.60
2020,12,06,11,09,9.60
2020,12,06,11,10,9.60
2020,12,06,11,11,9.60
2020,12,06,11,12,9.60
2020,12,06,11,13,9.70
2020,12,06,11,14,9.70
2020,12,06,11,15,9.70
2020,12,06,11,16,9.70
2020,12,06,11,17,9.70
2020,12,06,11,18,9.70
2020,12,06,11,19,9.70
2020,12,06,11,20,9.70
2020,12,06,11,21,9.70
2020,12,06,11,22,9.70
2020,12,06,11,23,9.70
2020,12,06,11,24,9.70
2020,12,06,11,25,9.70
2020,12,06,11,26,9.80
2020,12,06,11,27,9.80
2020,12,06,11,28,9.70
2020,12,06,11,29,9.80
2020,12,06,11,30,9.80
2020,12,06,11,31,9.80
2020,12,06,11,32,9.80
2020,12,06,11,33,9.80
2020,12,06,11,34,9.80
2020,12,06,11,35,9.80
2020,12,06,11,36,9.80
2020,12,06,11,37,9.80
2020,12,06,11,38,9.80
2020,12,06,11,39,9.80
2020,12,06,11,40,9.80
2020,12,06,11,41,9.80
2020,12,06,11,42,9.80
2020,12,06,11,43,9.80
2020,12,06,11,44,9.80
2020,12,06,11,45,9.80
2020,12,06,11,46,9.80
2020,12,06,11,47,9.80
2020,12,06,11,48,9.80
2020,12,06,11,49,9.80
2020,12,06,11,50,9.80
2020,12,06,11,51,9.80
2020,12,06,11,52,9.80
2020,12,06,11,53,9.80
2020,12,06,11,54,9.80
2020,12,06,11,55,9.80
2020,12,06,11,56,9.80
2020,12,06,11,57,9.80
2020,12,06,11,58,9.80
2020,12,06,11,59,9.80
2020,12,06,12,00,9.90
2020,12,06,12,01,9.90
2020,12,06,12,02,9.90
2020,12,06,12,03,9.90
2020,12,06,12,04,9.90
2020,12,06,12,05,10.00
2020,12,06,12,06,10.00
2020,12,06,12,07,10.00
2020,12,06,12,08,10.00
2020,12,06,12,09,10.00
2020,12,06,12,10,10.10
2020,12,06,12,11,10.10
2020,12,06,12,12,10.00
2020,12,06,12,13,10.10
2020,12,06,12,14,10.10
2020,12,06,12,15,10.10
2020,12,06,12,16,10.10
2020,12,06,12,17,10.10
2020,12,06,12,18,10.10
2020,12,06,12,19,10.00
2020,12,06,12,20,10.10
2020,12,06,12,21,10.10
2020,12,06,12,22,10.10
2020,12,06,12,23,10.20
2020,12,06,12,24,10.20
2020,12,06,12,25,10.20
2020,12,06,12,26,10.20
2020,12,06,12,27,10.20
2020,12,06,12,28,10.30
2020,12,06,12,29,10.30
2020,12,06,12,30,10.30
2020,12,06,12,31,10.30
2020,12,06,12,32,10.30
2020,12,06,12,33,10.30
2020,12,06,12,34,10.30
2020,12,06,12,35,10.30
2020,12,06,12,36,10.30
2020,12,06,12,37,10.30
2020,12,06,12,38,10.30
2020,12,06,12,39,10.40
2020,12,06,12,40,10.40
2020,12,06,12,41,10.40
2020,12,06,12,42,10.40
2020,12,06,12,43,10.50
2020,12,06,12,44,10.50
2020,12,06,12,45,10.40
2020,12,06,12,46,10.40
2020,12,06,12,47,10.40
2020,12,06,12,48,10.40
2020,12,06,12,49,10.50
2020,12,06,12,50,10.50
2020,12,06,12,51,10.40
2020,12,06,12,52,10.40
2020,12,06,12,53,10.40
2020,12,06,12,54,10.50
2020,12,06,12,55,10.50
2020,12,06,12,56,10.50
2020,12,06,12,57,10.60
2020,12,06,12,58,10.60
2020,12,06,12,59,10.60
2020,12,06,13,00,10.60
2020,12,06,13,01,10.60
2020,12,06,13,02,10.60
2020,12,06,13,03,10.60
2020,12,06,13,04,10.60
2020,12,06,13,05,10.60
2020,12,06,13,06,10.60
2020,12,06,13,07,10.60
2020,12,06,13,08,10.60
2020,12,06,13,09,10.60
2020,12,06,13,10,10.60
2020,12,06,13,11,10.60
2020,12,06,13,12,10.50
2020,12,06,13,13,10.50
2020,12,06,13,14,10.50
2020,12,06,13,15,10.50
2020,12,06,13,16,10.50
2020,12,06,13,17,10.50
2020,12,06,13,18,10.60
2020,12,06,13,19,10.50
2020,12,06,13,20,10.50
2020,12,06,13,21,10.50
2020,12,06,13,22,10.60
2020,12,06,13,23,10.60
2020,12,06,13,24,10.60
2020,12,06,13,25,10.60
2020,12,06,13,26,10.60
2020,12,06,13,27,10.60
2020,12,06,13,28,10.60
2020,12,06,13,29,10.60
2020,12,06,13,30,10.60
2020,12,06,13,31,10.60
2020,12,06,13,32,10.60
2020,12,06,13,33,10.60
2020,12,06,13,34,10.60
2020,12,06,13,35,10.60
2020,12,06,13,36,10.60
2020,12,06,13,37,10.60
2020,12,06,13,38,10.60
2020,12,06,13,39,10.60
2020,12,06,13,40,10.60
2020,12,06,13,41,10.60
2020,12,06,13,42,10.60
2020,12,06,13,43,10.60
2020,12,06,13,44,10.60
2020,12,06,13,45,10.60
2020,12,06,13,46,10.60
2020,12,06,13,47,10.60
2020,12,06,13,48,10.50
2020,12,06,13,49,10.60
2020,12,06,13,50,10.50
2020,12,06,13,51,10.50
2020,12,06,13,52,10.50
2020,12,06,13,53,10.40
2020,12,06,13,54,10.40
2020,12,06,13,55,10.40
2020,12,06,13,56,10.40
2020,12,06,13,57,10.40
2020,12,06,13,58,10.30
2020,12,06,13,59,10.30
2020,12,06,14,00,10.30
2020,12,06,14,01,10.30
2020,12,06,14,02,10.30
2020,12,06,14,03,10.30
2020,12,06,14,04,10.30
2020,12,06,14,05,10.30
2020,12,06,14,06,10.30
2020,12,06,14,07,10.30
2020,12,06,14,08,10.30
2020,12,06,14,09,10.30
2020,12,06,14,10,10.30
2020,12,06,14,11,10.30
2020,12,06,14,12,10.30
2020,12,06,14,13,10.30
2020,12,06,14,14,10.40
2020,12,06,14,15,10.40
2020,12,06,14,16,10.40
2020,12,06,14,17,10.40
2020,12,06,14,18,10.40
2020,12,06,14,19,10.50
2020,12,06,14,20,10.50
2020,12,06,14,21,10.50
2020,12,06,14,22,10.50
2020,12,06,14,23,10.50
2020,12,06,14,24,10.50
2020,12,06,14,25,10.40
2020,12,06,14,26,10.40
2020,12,06,14,27,10.40
2020,12,06,14,28,10.50
2020,12,06,14,29,10.50
2020,12,06,14,30,10.40
2020,12,06,14,31,10.40
2020,12,06,14,32,10.40
2020,12,06,14,33,10.40
2020,12,06,14,34,10.40
2020,12,06,14,35,10.40
2020,12,06,14,36,10.40
2020,12,06,14,37,10.40
2020,12,06,14,38,10.40
2020,12,06,14,39,10.40
2020,12,06,14,40,10.40
2020,12,06,14,41,10.40
2020,12,06,14,42,10.40
2020,12,06,14,43,10.40
2020,12,06,14,44,10.40
2020,12,06,14,45,10.40
2020,12,06,14,46,10.40
2020,12,06,14,47,10.40
2020,12,06,14,48,10.40
2020,12,06,14,49,10.40
2020,12,06,14,50,10.30
2020,12,06,14,51,10.30
2020,12,06,14,52,10.30
2020,12,06,14,53,10.30
2020,12,06,14,54,10.30
2020,12,06,14,55,10.30
2020,12,06,14,56,10.20
2020,12,06,14,57,10.20
2020,12,06,14,58,10.20
2020,12,06,14,59,10.20
2020,12,06,15,00,10.20
2020,12,06,15,01,10.20
2020,12,06,15,02,10.10
2020,12,06,15,03,10.10
2020,12,06,15,04,10.10
2020,12,06,15,05,10.10
2020,12,06,15,06,10.10
2020,12,06,15,07,10.10
2020,12,06,15,08,10.00
2020,12,06,15,09,10.10
2020,12,06,15,10,10.00
2020,12,06,15,11,10.00
2020,12,06,15,12,10.00
2020,12,06,15,13,10.00
2020,12,06,15,14,10.00
2020,12,06,15,15,10.00
2020,12,06,15,16,10.00
2020,12,06,15,17,10.00
2020,12,06,15,18,10.00
2020,12,06,15,19,10.00
2020,12,06,15,20,10.00
2020,12,06,15,21,10.00
2020,12,06,15,22,10.00
2020,12,06,15,23,10.00
2020,12,06,15,24,10.00
2020,12,06,15,25,10.00
2020,12,06,15,26,10.00
2020,12,06,15,27,10.00
2020,12,06,15,28,10.10
2020,12,06,15,29,10.00
2020,12,06,15,30,10.10
2020,12,06,15,31,10.10
2020,12,06,15,32,10.10
2020,12,06,15,33,10.10
2020,12,06,15,34,10.10
2020,12,06,15,35,10.10
2020,12,06,15,36,10.10
2020,12,06,15,37,10.10
2020,12,06,15,38,10.10
2020,12,06,15,39,10.10
2020,12,06,15,40,10.10
2020,12,06,15,41,10.10
2020,12,06,15,42,10.10
2020,12,06,15,43,10.10
2020,12,06,15,44,10.10
2020,12,06,15,45,10.10
2020,12,06,15,46,10.10
2020,12,06,15,47,10.10
2020,12,06,15,48,10.10
2020,12,06,15,49,10.10
2020,12,06,15,50,10.10
2020,12,06,15,51,10.10
2020,12,06,15,52,10.10
2020,12,06,15,53,10.10
2020,12,06,15,54,10.10
2020,12,06,15,55,10.10
2020,12,06,15,56,10.10
2020,12,06,15,57,10.10
2020,12,06,15,58,10.20
2020,12,06,15,59,10.20
2020,12,06,16,00,10.10
2020,12,06,16,01,10.10
2020,12,06,16,02,10.10
2020,12,06,16,03,10.20
2020,12,06,16,04,10.20
2020,12,06,16,05,10.20
2020,12,06,16,06,10.20
2020,12,06,16,07,10.20
2020,12,06,16,08,10.20
2020,12,06,16,09,10.20
2020,12,06,16,10,10.20
2020,12,06,16,11,10.20
2020,12,06,16,12,10.10
2020,12,06,16,13,10.10
2020,12,06,16,14,10.10
2020,12,06,16,15,10.10
2020,12,06,16,16,10.10
2020,12,06,16,17,10.10
2020,12,06,16,18,10.10
2020,12,06,16,19,10.10
2020,12,06,16,20,10.10
2020,12,06,16,21,10.10
2020,12,06,16,22,10.10
2020,12,06,16,23,10.10
2020,12,06,16,24,10.10
2020,12,06,16,25,10.10
2020,12,06,16,26,10.00
2020,12,06,16,27,10.00
2020,12,06,16,28,10.00
2020,12,06,16,29,10.00
2020,12,06,16,30,10.00
2020,12,06,16,31,10.00
2020,12,06,16,32,10.00
2020,12,06,16,33,10.00
2020,12,06,16,34,10.00
2020,12,06,16,35,10.00
2020,12,06,16,36,10.00
2020,12,06,16,37,10.00
2020,12,06,16,38,10.00
2020,12,06,16,39,10.00
2020,12,06,16,40,10.00
2020,12,06,16,41,10.00
2020,12,06,16,42,10.00
2020,12,06,16,43,9.90
2020,12,06,16,44,9.90
2020,12,06,16,45,9.90
2020,12,06,16,46,9.90
2020,12,06,16,47,9.90
2020,12,06,16,48,9.90
2020,12,06,16,49,9.90
2020,12,06,16,50,9.90
2020,12,06,16,51,9.90
2020,12,06,16,52,9.90
2020,12,06,16,53,9.90
2020,12,06,16,54,9.90
2020,12,06,16,55,9.90
2020,12,06,16,56,9.90
2020,12,06,16,57,9.90
2020,12,06,16,58,9.90
2020,12,06,16,59,9.90
2020,12,06,17,00,9.90
2020,12,06,17,01,9.90
2020,12,06,17,02,9.90
2020,12,06,17,03,9.90
2020,12,06,17,04,9.90
2020,12,06,17,05,9.90
2020,12,06,17,06,9.90
2020,12,06,17,07,9.80
2020,12,06,17,08,9.90
2020,12,06,17,09,9.80
2020,12,06,17,10,9.80
2020,12,06,17,11,9.80
2020,12,06,17,12,9.80
2020,12,06,17,13,9.80
2020,12,06,17,14,9.80
2020,12,06,17,15,9.80
2020,12,06,17,16,9.80
2020,12,06,17,17,9.80
2020,12,06,17,18,9.80
2020,12,06,17,19,9.80
2020,12,06,17,20,9.80
2020,12,06,17,21,9.80
2020,12,06,17,22,9.80
2020,12,06,17,23,9.70
2020,12,06,17,24,9.70
2020,12,06,17,25,9.70
2020,12,06,17,26,9.70
2020,12,06,17,27,9.70
2020,12,06,17,28,9.70
2020,12,06,17,29,9.70
2020,12,06,17,30,9.70
2020,12,06,17,31,9.70
2020,12,06,17,32,9.60
2020,12,06,17,33,9.60
2020,12,06,17,34,9.60
2020,12,06,17,35,9.60
2020,12,06,17,36,9.60
2020,12,06,17,37,9.60
2020,12,06,17,38,9.60
2020,12,06,17,39,9.60
2020,12,06,17,40,9.60
2020,12,06,17,41,9.60
2020,12,06,17,42,9.60
2020,12,06,17,43,9.60
2020,12,06,17,44,9.60
2020,12,06,17,45,9.70
2020,12,06,17,46,9.70
2020,12,06,17,47,9.70
2020,12,06,17,48,9.60
2020,12,06,17,49,9.70
2020,12,06,17,50,9.70
2020,12,06,17,51,9.70
2020,12,06,17,52,9.60
2020,12,06,17,53,9.70
2020,12,06,17,54,9.70